Location: Jastrz?bniki
(50.3667°N, 20.3833°E)
Time: 11:16:22
(UTC+00:00)

Helios 1A Rocket - Pass Details

Date: 05 August 2024
Orbit: 512 x 533 km, 98.3° (Epoch: 06 September)

Event Time Altitude Azimuth Distance (km) Brightness Sun altitude
Exits shadow 00:10:06 60° 186° (S) 627 2.7 -20.2°
Maximum altitude 00:10:44 79° 255° (WSW) 563 2.7 -20.1°
Drops below altitude 10° 00:14:41 10° 343° (NNW) 1,829 6.2 -19.9°
Sets 00:16:50 0° 345° (NNW) 2,728 7.2 -19.7°
